Wind_Speed
2 2 1 2 3 2 0 1 2 4 1 3 3 1 2 2 3 2 5 11 13 20 23 22 20 17 16 12 10 9 8 10 10 8 6 8 8 7 6 5 5 7 8 8 10 9 9 11 13
3 3 1 3 3 2 1 2 3 2 4 7 3 3 1 1 1 1 6 6 16 19 21 20 20 17 14 12 13 12 12 11 9 8 6 8 7 6 6 5 4 6 8 8 10 8 9 11 12
4 3 2 3 2 3 3 3 3 6 10 3 2 1 1 2 2 4 2 6 15 17 18 18 17 16 13 12 12 14 13 13 12 10 8 8 7 6 6 5 4 4 6 7 8 7 8 8 10
3 2 5 2 2 3 2 1 4 9 1 1 1 1 0 0 2 2 2 6 11 16 18 17 16 16 15 16 15 13 11 12 9 10 10 9 7 7 7 6 5 3 5 6 6 6 6 7 10
3 3 3 1 3 3 4 4 5 3 5 3 1 2 2 3 3 3 4 7 9 14 17 17 16 16 16 16 15 15 13 11 10 9 9 11 8 6 6 7 6 4 3 4 5 6 5 5 8
3 2 2 2 3 3 4 5 2 3 3 1 1 1 2 4 6 4 5 7 9 12 16 17 16 15 14 13 14 14 12 11 10 10 10 11 9 6 6 6 6 4 2 3 4 5 4 5 6
4 3 2 2 2 4 2 6 0 2 2 2 4 2 3 3 8 7 7 8 10 12 14 16 15 14 13 13 12 11 11 11 11 10 10 11 10 8 7 7 7 6 4 3 3 4 4 4 5
3 2 3 4 2 3 2 4 1 5 1 4 2 1 4 9 7 10 12 11 12 12 14 15 15 14 14 13 12 11 11 11 10 10 10 10 12 10 9 8 8 8 5 3 2 3 3 4 4
2 2 2 3 5 1 3 5 5 9 3 7 2 6 8 11 7 13 14 15 16 16 15 15 15 15 14 14 13 12 11 10 11 10 10 11 11 11 11 9 9 8 7 5 4 3 3 3 4
3 1 3 2 2 1 6 5 13 6 7 5 10 6 9 11 9 17 20 20 20 19 18 17 17 15 13 13 14 14 13 13 11 11 12 11 11 11 11 11 9 9 8 7 6 4 3 2 3
3 4 4 2 5 3 6 10 4 6 3 4 12 19 14 14 14 16 22 23 22 21 19 19 17 17 14 13 13 14 15 15 14 13 12 12 13 13 13 11 10 10 10 10 8 6 4 4 4
2 7 5 6 2 5 4 6 4 11 17 18 20 21 19 19 17 17 23 26 25 23 22 21 18 17 16 15 11 13 15 16 16 16 14 13 13 14 13 12 11 10 10 10 9 7 7 6 5
4 4 7 10 13 14 10 11 7 17 22 15 19 18 24 25 21 17 21 26 26 26 24 22 22 20 21 19 15 13 17 18 17 16 15 15 15 15 13 11 10 9 8 9 8 8 7 6 7
5 7 10 12 15 12 8 8 2 2 7 19 13 15 13 17 20 20 21 25 29 28 28 27 26 24 24 21 18 14 15 17 16 17 16 16 16 15 14 13 10 12 9 8 6 7 8 8 10
5 6 7 6 3 3 1 2 5 3 16 20 17 21 18 13 13 18 20 22 26 34 33 30 28 27 27 24 21 17 14 16 16 16 17 17 16 15 14 13 9 10 10 8 8 8 9 10 11
4 2 3 5 5 3 1 6 3 9 24 22 21 23 24 22 19 16 17 20 23 24 38 36 33 32 30 26 21 21 17 17 16 16 17 16 15 13 11 12 11 10 10 10 9 9 9 8 9
2 6 2 6 4 4 3 4 8 27 21 21 25 28 30 27 20 19 19 18 21 20 27 30 35 35 31 29 24 23 20 18 17 17 16 14 13 11 10 10 10 10 9 9 7 6 6 7 6
3 4 3 4 4 9 14 18 9 21 17 20 22 21 21 22 21 22 22 20 18 20 19 26 30 36 33 28 28 25 24 22 21 18 16 14 13 12 10 10 9 8 8 8 7 6 6 6 7
1 3 10 7 11 7 12 15 12 19 21 14 13 18 20 23 22 20 19 16 18 21 22 24 29 34 35 34 32 31 32 27 24 19 17 16 14 14 12 12 11 10 9 9 9 8 7 8 6
5 6 11 9 8 4 10 14 13 13 2 12 15 19 23 27 27 25 22 19 16 18 24 25 27 32 39 40 38 37 35 30 24 20 19 19 17 15 14 14 13 11 11 11 12 11 10 10 9
6 8 5 11 5 5 5 6 2 1 13 13 17 16 21 25 27 30 29 26 23 18 17 26 27 31 35 40 43 39 34 30 26 26 23 23 20 17 15 15 14 13 12 11 11 10 10 9 9
6 8 13 8 3 5 2 8 6 2 6 13 22 23 24 27 27 27 32 29 30 24 14 19 26 31 33 36 41 42 40 38 33 29 24 23 21 18 17 16 15 13 12 10 10 10 9 9 8
6 4 4 4 4 3 4 4 4 1 4 12 17 20 22 23 25 28 32 32 31 29 20 12 16 25 29 29 33 37 39 38 34 28 27 25 22 19 17 15 14 13 11 10 10 8 8 7 7
3 3 0 1 2 8 12 9 10 2 3 7 17 21 23 26 27 29 30 36 32 31 24 13 8 13 20 26 27 33 41 37 36 32 29 25 22 19 17 15 13 14 10 8 8 9 7 7 7
2 2 3 4 4 8 1 6 5 6 5 5 11 19 25 27 33 38 38 39 37 36 30 19 10 7 13 18 25 27 37 35 37 32 27 24 22 20 17 14 12 13 10 10 8 8 7 8 8
2 4 5 7 5 5 4 6 3 7 5 8 10 16 25 34 37 40 36 33 35 35 34 23 16 8 8 12 19 26 32 33 31 20 20 20 18 16 14 13 14 13 10 11 8 8 8 8 9
3 3 2 2 2 4 6 2 6 3 5 12 17 22 28 32 42 41 39 36 32 34 31 27 22 14 6 9 16 20 24 24 28 17 11 18 17 16 13 14 16 14 15 8 9 9 10 11 8
2 3 2 3 4 5 4 4 4 1 8 12 18 24 30 32 31 39 36 33 21 29 30 21 19 18 10 7 12 16 20 19 15 16 9 17 15 15 15 14 15 14 11 10 10 9 10 10 11
0 2 5 2 3 3 4 5 3 2 5 11 16 24 27 29 32 33 32 30 25 24 24 18 12 10 9 4 12 19 18 14 10 15 18 19 17 15 14 13 14 11 13 10 9 5 8 12 11
2 1 3 5 5 1 1 10 3 8 14 27 30 29 25 34 28 32 29 26 26 21 22 12 9 4 3 6 6 9 12 11 16 16 23 21 16 15 15 14 13 15 13 11 10 6 6 9 10
Wind_Direction
158 158 94 86 82 52 300 56 305 324 355 2 345 338 60 151 190 246 307 170 172 178 174 173 168 181 181 174 170 162 165 155 167 167 151 145 148 151 140 113 75 69 71 78 81 83 79 81 73
131 142 93 95 91 104 250 248 201 253 322 283 313 324 344 328 311 323 129 159 170 175 177 178 177 182 185 177 167 167 170 165 179 175 164 150 153 160 156 140 96 64 68 85 87 83 83 79 70
115 113 53 80 97 170 173 207 251 293 310 242 246 356 168 348 351 154 169 166 172 178 180 181 180 180 184 173 174 174 168 173 175 171 169 157 163 164 171 157 134 85 72 87 102 95 85 82 63
128 77 69 81 205 265 248 31 302 315 347 203 153 250 323 127 137 175 176 163 179 180 183 184 185 185 185 181 183 189 169 167 175 174 172 158 184 172 179 174 164 112 84 101 108 96 90 85 67
115 64 65 67 251 250 232 256 305 295 308 339 318 331 302 223 209 195 178 170 185 184 189 191 192 192 191 191 194 196 197 190 186 190 182 167 196 190 182 177 179 156 116 106 121 116 101 82 75
91 81 92 218 248 245 264 254 238 233 257 286 143 183 251 227 201 227 196 182 184 196 195 196 195 199 197 199 198 197 197 197 194 192 189 176 189 200 182 198 192 181 147 131 136 140 125 93 83
127 112 187 192 254 297 240 336 323 323 306 354 339 291 291 285 217 206 199 192 186 186 200 199 200 200 203 207 207 204 200 199 198 198 196 182 186 201 187 201 202 195 187 137 159 157 134 114 100
118 81 147 212 191 262 349 356 115 29 341 353 8 356 342 340 252 216 194 191 190 187 190 201 203 204 207 210 211 211 207 202 203 200 201 192 189 198 200 203 204 201 194 156 172 177 158 140 122
124 70 216 237 167 194 28 10 352 334 255 330 321 319 317 314 271 221 210 203 197 192 190 196 203 208 212 215 217 218 219 216 211 206 205 201 200 202 207 205 204 199 199 191 184 192 192 158 143
87 131 231 253 233 323 339 1 330 323 323 303 310 323 321 320 281 229 223 218 209 204 200 200 203 203 211 219 222 222 223 224 217 214 214 215 212 211 209 212 207 197 196 202 200 202 210 192 174
169 217 191 218 242 284 310 314 322 294 311 302 307 308 303 307 299 253 237 231 226 217 211 211 211 211 213 222 230 230 233 227 225 223 225 223 222 221 217 216 210 202 198 205 213 205 220 227 200
299 268 248 293 287 308 269 282 266 270 278 291 297 296 285 286 283 269 249 239 236 231 225 224 224 218 223 227 233 240 237 236 236 234 230 230 232 229 227 223 217 208 197 211 215 213 218 225 206
202 242 262 269 284 287 275 256 258 270 295 318 316 288 278 275 273 265 252 249 246 245 244 239 236 229 233 229 232 242 238 236 243 237 238 236 234 235 227 225 217 210 209 216 218 210 212 221 220
205 245 264 279 271 261 258 272 189 312 344 337 346 351 314 277 269 260 248 250 250 252 249 247 243 237 234 232 233 241 240 241 233 236 234 242 238 234 229 223 224 238 230 226 228 207 212 222 231
307 314 328 268 277 265 173 253 225 326 339 337 328 329 326 328 295 266 262 256 263 254 252 247 241 236 231 234 232 236 243 235 239 234 237 242 239 230 224 226 222 214 207 209 206 203 216 222 234
331 41 328 328 351 3 167 285 290 315 331 326 318 316 318 329 322 308 293 288 281 275 242 247 243 236 232 224 231 230 237 232 239 236 237 233 232 231 229 221 220 207 205 204 207 211 214 219 230
358 270 239 302 348 339 16 289 285 318 317 313 306 315 322 327 328 322 302 291 289 292 243 245 237 236 236 223 231 230 233 237 239 239 235 225 222 221 213 208 210 206 206 206 207 202 207 214 221
262 267 278 276 314 306 291 284 298 302 300 294 311 336 342 340 340 331 312 290 276 270 260 252 238 233 236 229 230 230 229 233 235 235 220 214 209 212 206 197 201 209 211 218 224 224 220 217 218
94 261 275 258 264 287 267 277 273 284 296 322 14 359 353 352 348 343 330 312 283 260 254 250 244 232 227 225 224 225 226 227 228 222 213 207 210 214 215 213 214 219 225 235 242 246 245 243 221
227 266 273 284 268 213 272 279 271 264 313 67 21 6 359 355 357 357 355 350 325 279 248 241 245 240 229 225 226 227 227 223 223 218 210 213 214 215 221 226 228 234 241 248 249 244 247 241 217
232 243 248 264 328 258 291 279 250 171 113 49 29 13 3 358 355 3 3 1 353 327 273 247 239 240 237 231 227 227 225 223 216 215 210 213 216 220 223 227 234 242 246 248 249 247 247 236 212
259 232 251 261 292 272 287 293 255 212 116 23 10 8 4 359 358 2 6 7 4 355 310 266 239 231 235 234 230 224 220 214 216 216 209 209 214 219 217 224 233 239 246 245 251 244 234 229 222
238 2 259 248 235 310 236 245 261 325 9 2 3 4 5 5 359 1 7 7 7 7 2 304 237 227 235 236 231 221 214 221 216 213 211 208 211 219 219 225 238 235 223 224 226 240 232 218 217
311 299 288 69 176 247 231 211 272 23 24 358 4 5 4 7 9 7 7 9 7 9 13 12 291 242 239 242 232 223 212 217 210 210 208 209 215 214 218 223 227 208 218 221 247 219 196 215 224
169 140 273 246 215 254 115 203 263 122 84 32 2 0 0 7 10 10 6 7 360 4 7 10 9 299 258 249 241 232 220 215 213 207 211 210 211 214 219 222 221 204 212 224 221 199 208 228 234
213 202 190 225 241 298 314 241 173 134 86 43 21 4 4 5 3 6 5 358 5 356 1 5 6 351 290 257 236 234 224 223 209 198 209 212 214 214 215 212 186 188 204 222 220 201 217 237 223
168 199 358 40 48 253 246 208 189 169 26 21 9 357 357 356 353 355 356 353 357 352 357 357 12 2 312 255 234 235 220 215 193 210 209 220 199 206 202 194 188 189 206 217 206 212 229 226 207
144 134 140 60 239 238 236 256 241 53 355 350 355 350 345 340 342 343 347 352 343 333 350 348 7 8 333 271 234 218 196 188 193 181 211 229 205 197 190 189 192 194 202 196 208 222 229 200 180
227 189 66 99 209 252 281 265 132 142 334 338 336 334 331 331 331 333 330 338 342 339 338 339 354 3 21 110 169 176 183 176 192 185 220 209 199 195 186 185 197 189 187 196 196 205 176 173 167
331 10 173 213 208 184 44 270 124 349 337 340 331 325 322 327 320 322 313 322 331 337 332 345 334 331 20 107 123 167 183 205 214 218 208 192 186 194 191 186 192 185 194 196 188 182 157 169 175
Height
1513 1512 1513 1514 1522 1525 1526 1522 1520 1516 1512 1511 1511 1508 1507 1506 1506 1514 1505 1505 1507 1511 1514 1517 1520 1522 1523 1525 1527 1529 1531 1532 1533 1534 1535 1535 1536 1536 1536 1536 1537 1536 1535 1535 1534 1534 1533 1531 1531
1512 1514 1515 1514 1523 1526 1524 1520 1517 1514 1512 1511 1510 1510 1508 1508 1506 1505 1506 1507 1508 1509 1513 1517 1519 1522 1524 1525 1526 1528 1529 1532 1533 1534 1535 1536 1535 1536 1536 1536 1537 1538 1537 1535 1536 1536 1535 1534 1532
1513 1514 1515 1519 1530 1523 1521 1515 1513 1511 1510 1510 1509 1508 1508 1508 1507 1507 1507 1507 1509 1510 1512 1515 1517 1520 1523 1525 1527 1527 1527 1529 1531 1532 1534 1535 1536 1536 1536 1537 1537 1538 1537 1537 1537 1536 1536 1535 1534
1513 1515 1518 1520 1526 1521 1518 1514 1514 1512 1509 1508 1507 1508 1509 1507 1507 1508 1509 1508 1510 1511 1513 1515 1518 1519 1520 1523 1525 1528 1528 1529 1530 1531 1532 1534 1536 1535 1536 1536 1537 1538 1537 1537 1538 1538 1537 1536 1535
1514 1515 1521 1524 1523 1519 1516 1515 1513 1512 1509 1508 1509 1509 1508 1507 1508 1508 1508 1508 1510 1511 1513 1514 1517 1519 1521 1522 1524 1526 1527 1527 1529 1531 1533 1534 1536 1536 1536 1536 1536 1536 1537 1537 1538 1537 1538 1539 1537
1514 1517 1523 1525 1523 1516 1514 1513 1512 1511 1509 1508 1508 1508 1507 1507 1508 1509 1510 1511 1511 1513 1513 1515 1516 1519 1520 1522 1524 1525 1526 1527 1528 1529 1531 1533 1534 1535 1536 1537 1537 1537 1538 1538 1538 1538 1538 1539 1538
1514 1517 1522 1525 1523 1518 1512 1512 1511 1510 1508 1508 1507 1508 1508 1507 1508 1508 1509 1510 1511 1512 1514 1515 1517 1519 1520 1522 1524 1525 1526 1526 1527 1528 1530 1531 1532 1534 1534 1537 1538 1538 1539 1538 1538 1538 1538 1539 1540
1515 1518 1523 1522 1521 1517 1512 1511 1511 1512 1512 1511 1509 1509 1509 1508 1508 1508 1508 1509 1510 1510 1511 1514 1516 1517 1520 1522 1523 1524 1525 1526 1527 1527 1528 1529 1531 1533 1533 1535 1536 1537 1538 1537 1539 1538 1539 1539 1539
1516 1520 1524 1518 1520 1513 1513 1513 1512 1512 1511 1511 1510 1510 1509 1508 1507 1507 1508 1508 1509 1508 1509 1511 1514 1516 1518 1520 1521 1523 1525 1525 1526 1527 1528 1528 1529 1531 1533 1534 1535 1535 1537 1538 1538 1538 1538 1539 1539
1516 1523 1519 1517 1515 1514 1514 1514 1514 1512 1512 1511 1510 1509 1508 1506 1505 1505 1504 1504 1506 1507 1509 1510 1512 1514 1516 1519 1520 1520 1522 1523 1525 1526 1526 1528 1529 1529 1530 1532 1533 1535 1535 1536 1537 1538 1538 1538 1539
1517 1516 1513 1511 1511 1512 1511 1510 1511 1510 1507 1508 1509 1507 1507 1505 1504 1503 1503 1503 1504 1506 1507 1509 1511 1514 1515 1516 1518 1519 1520 1521 1523 1524 1525 1526 1527 1529 1529 1530 1532 1533 1534 1535 1536 1537 1537 1537 1539
1519 1514 1514 1512 1511 1510 1509 1508 1508 1507 1504 1506 1506 1505 1503 1502 1501 1500 1500 1500 1502 1503 1505 1506 1509 1511 1513 1514 1515 1516 1517 1519 1521 1522 1523 1524 1526 1526 1528 1529 1530 1531 1533 1534 1534 1535 1536 1537 1538
1513 1511 1510 1509 1509 1507 1506 1504 1506 1502 1502 1501 1499 1498 1498 1499 1499 1498 1497 1497 1499 1499 1502 1504 1506 1508 1509 1511 1513 1514 1514 1516 1518 1520 1521 1522 1523 1525 1526 1528 1529 1529 1531 1531 1532 1533 1535 1536 1538
1509 1507 1506 1504 1501 1502 1502 1501 1501 1498 1498 1497 1496 1494 1492 1491 1493 1495 1495 1495 1496 1496 1496 1499 1501 1503 1506 1508 1509 1511 1513 1515 1515 1517 1518 1521 1521 1523 1524 1526 1526 1527 1529 1530 1531 1532 1534 1535 1537
1511 1511 1506 1502 1502 1500 1498 1499 1497 1496 1496 1493 1491 1490 1490 1490 1490 1489 1492 1492 1493 1492 1492 1493 1494 1497 1500 1504 1507 1508 1510 1512 1514 1514 1516 1518 1519 1520 1522 1523 1525 1527 1528 1528 1530 1531 1533 1533 1535
1515 1516 1516 1506 1504 1502 1502 1498 1496 1496 1495 1493 1490 1485 1483 1485 1486 1486 1485 1485 1485 1482 1483 1486 1489 1491 1493 1497 1502 1504 1507 1509 1510 1511 1513 1515 1517 1519 1520 1521 1523 1524 1526 1527 1528 1529 1531 1531 1532
1517 1514 1517 1510 1505 1505 1505 1502 1496 1495 1493 1491 1488 1486 1483 1477 1478 1478 1478 1477 1477 1476 1475 1478 1481 1485 1488 1493 1496 1501 1503 1504 1506 1507 1509 1511 1515 1517 1518 1519 1521 1522 1523 1525 1526 1527 1528 1529 1531
1517 1519 1518 1517 1506 1503 1503 1498 1496 1494 1490 1487 1487 1486 1482 1477 1473 1471 1470 1469 1470 1470 1471 1473 1474 1478 1483 1488 1492 1495 1498 1500 1502 1504 1506 1508 1512 1515 1516 1517 1519 1521 1521 1523 1524 1525 1527 1527 1528
1517 1518 1515 1511 1505 1505 1500 1496 1493 1488 1486 1486 1485 1485 1481 1476 1472 1468 1465 1463 1462 1463 1465 1466 1467 1470 1475 1479 1484 1487 1489 1494 1498 1499 1503 1506 1508 1512 1514 1516 1517 1519 1520 1521 1523 1523 1524 1525 1526
1514 1514 1510 1504 1500 1502 1494 1488 1485 1483 1484 1488 1489 1486 1482 1474 1467 1463 1460 1458 1457 1455 1457 1458 1460 1462 1466 1471 1476 1479 1483 1488 1493 1496 1498 1503 1505 1508 1511 1515 1516 1517 1518 1519 1521 1522 1523 1523 1524
1511 1509 1508 1505 1501 1499 1496 1485 1483 1479 1484 1487 1488 1487 1485 1479 1469 1462 1458 1456 1452 1450 1448 1448 1451 1455 1457 1462 1468 1473 1477 1486 1490 1491 1493 1498 1502 1504 1508 1511 1513 1514 1515 1516 1518 1519 1520 1521 1521
1509 1501 1500 1501 1503 1500 1495 1490 1483 1477 1482 1487 1486 1484 1481 1477 1472 1465 1457 1452 1449 1444 1441 1442 1443 1446 1450 1453 1458 1464 1470 1476 1482 1486 1490 1493 1498 1501 1504 1507 1510 1511 1513 1514 1515 1516 1517 1518 1519
1501 1498 1499 1499 1500 1502 1497 1497 1474 1480 1482 1489 1488 1486 1482 1477 1473 1465 1458 1454 1449 1445 1440 1439 1437 1440 1444 1448 1452 1457 1466 1472 1478 1483 1488 1490 1494 1497 1500 1504 1507 1508 1510 1512 1513 1514 1515 1516 1518
1499 1497 1498 1500 1501 1497 1484 1486 1473 1487 1497 1496 1492 1488 1483 1476 1470 1465 1460 1455 1449 1446 1441 1439 1437 1438 1443 1446 1449 1453 1458 1464 1472 1478 1483 1487 1491 1494 1497 1499 1502 1505 1507 1509 1511 1512 1513 1515 1516
1498 1498 1502 1500 1503 1489 1487 1488 1470 1494 1494 1495 1494 1491 1485 1479 1470 1461 1454 1453 1453 1448 1443 1439 1437 1438 1440 1443 1447 1453 1456 1459 1465 1472 1478 1483 1487 1490 1493 1495 1497 1502 1504 1506 1509 1510 1512 1513 1513
1499 1497 1496 1499 1494 1492 1495 1482 1478 1493 1492 1489 1489 1489 1485 1477 1472 1465 1462 1458 1457 1454 1446 1442 1438 1437 1439 1440 1445 1450 1456 1461 1463 1467 1476 1481 1485 1489 1491 1493 1494 1498 1502 1505 1507 1509 1509 1511 1511
1498 1499 1504 1498 1505 1505 1487 1485 1494 1492 1491 1485 1483 1483 1481 1476 1472 1466 1461 1457 1450 1455 1451 1445 1438 1436 1437 1439 1442 1447 1452 1459 1459 1467 1475 1481 1483 1486 1488 1491 1493 1495 1500 1503 1506 1507 1508 1509 1510
1496 1502 1500 1507 1517 1501 1480 1484 1471 1491 1490 1484 1480 1481 1479 1477 1474 1470 1466 1461 1453 1454 1452 1448 1441 1438 1437 1439 1441 1445 1453 1456 1462 1464 1474 1480 1482 1483 1485 1489 1491 1494 1498 1502 1504 1506 1506 1506 1508
1502 1499 1503 1507 1511 1497 1486 1472 1486 1493 1492 1487 1484 1483 1482 1478 1474 1471 1469 1466 1462 1460 1457 1451 1444 1444 1443 1440 1443 1446 1453 1457 1464 1465 1473 1479 1480 1483 1484 1486 1490 1492 1497 1500 1503 1504 1504 1505 1507
1508 1506 1506 1502 1505 1514 1520 1487 1491 1492 1488 1483 1480 1479 1478 1476 1474 1469 1466 1463 1460 1457 1455 1451 1448 1448 1448 1447 1449 1450 1451 1456 1463 1465 1471 1475 1477 1481 1482 1484 1488 1491 1494 1499 1501 1503 1504 1506 1507